Home   Weather   Stonewall   Past weeks

Flag for Canada Past Weather in Stonewall, Manitoba, Canada — Yesterday and Last 2 Weeks

Now
30 °F

Snow flurries. Mostly cloudy.


Feels Like: 18 °F
Forecast: 26 / 37 °F
Wind: 18 mph from Northeast

Location: Winnipeg Int. Airportman.

Current Time: Apr 25, 2017 at 12:06:29 am

Latest Report: Apr 24, 2017 at 11:00 pm


Visibility: 8 mi

Pressure: 29.87 "Hg

Humidity: 86%

Dew Point: 27 °F

Location of StonewallLocation

Past Weather in Stonewall — Graph

°F

Stonewall Temperature Yesterday

Maximum temperature yesterday: 34 °F (at 10:00 am)
Minimum temperature yesterday: 28 °F (at 1:00 am)
Average temperature yesterday: 32 °F

High & Low Weather Summary for the Past Weeks

 TemperatureHumidityPressure
High70 °F (Apr 14, 5:00 pm)100% (Apr 16, 2:00 am)30.37 "Hg (Apr 16, 2:00 am)
Low19 °F (Apr 10, 7:00 am)24% (Apr 11, 5:00 pm)29.60 "Hg (Apr 14, 9:00 pm)
Average40 °F69%30.12 "Hg
* Reported Apr 9 11:00 pm — Apr 24 11:00 pm, Stonewall, Weather by CustomWeather, © 2017

Note: Actual official high and low records may vary slightly from our data, if they occured in-between our weather recording intervals... More about our weather records

Advertising

Stonewall Weather History for the Previous 24 Hours

Scroll right to see more
 ConditionsComfort  
Time TempWeatherWind HumidityBarometerVisibility
11:00 pm
Mon, Apr 24
30 °FSnow flurries. Mostly cloudy.18 mph86%29.87 "Hg8 mi
10:00 pm32 °FSnow flurries. Overcast.18 mph80%29.86 "Hg15 mi
9:00 pm32 °FOvercast.20 mph80%29.85 "Hg15 mi
8:00 pm32 °FOvercast.21 mph80%29.84 "Hg15 mi
7:00 pm32 °FMostly cloudy.20 mph87%29.84 "Hg15 mi
6:08 pm32 °FMostly cloudy.22 mph87%29.83 "Hg15 mi
5:51 pm32 °FSnow flurries. Cloudy.21 mph93%29.83 "Hg7 mi
5:22 pm32 °FSnow flurries. Ice fog.28 mph93%29.83 "Hg5 mi
5:00 pm32 °FSnow flurries. Ice fog.21 mph93%29.83 "Hg2 mi
4:47 pm32 °FSnow flurries. Ice fog.25 mph93%29.83 "Hg1 mi
4:00 pm32 °FSnow flurries. Ice fog.25 mph93%29.83 "Hg1 mi
3:37 pm32 °FSnow flurries. Ice fog.24 mph93%29.83 "Hg1 mi
3:00 pm32 °FSnow flurries. Ice fog.21 mph93%29.83 "Hg1 mi
2:44 pm32 °FSnow flurries. Ice fog.20 mph93%29.84 "Hg1 mi
2:14 pm32 °FSnow flurries. Ice fog.18 mph93%29.84 "Hg1 mi
2:00 pm32 °FChilly.14 mph93%29.84 "Hg1 mi
1:33 pm32 °FSnow flurries. Ice fog.17 mph93%29.85 "Hg1 mi
1:00 pm32 °FLight snow. Low clouds.16 mph93%29.85 "Hg15 mi
12:41 pm34 °FLight snow. Overcast.16 mph75%29.85 "Hg2 mi
12:00 pm34 °FLight snow. Overcast.16 mph70%29.84 "Hg5 mi
11:00 am34 °FLight snow. Overcast.14 mph65%29.86 "Hg3 mi
10:00 am34 °FLight snow. Overcast.16 mph51%29.88 "Hg10 mi
9:00 am32 °FMostly cloudy.17 mph55%29.90 "Hg15 mi
8:00 am32 °FOvercast.17 mph51%29.92 "Hg15 mi
7:00 am32 °FOvercast.15 mph51%29.96 "Hg15 mi
6:00 am32 °FPassing clouds.14 mph47%29.96 "Hg15 mi
5:00 am32 °FMostly cloudy.14 mph51%29.98 "Hg15 mi
4:00 am32 °FPassing clouds.14 mph51%30.01 "Hg15 mi
3:00 am30 °FPassing clouds.13 mph55%30.02 "Hg15 mi
2:00 am28 °FPassing clouds.8 mph69%30.06 "Hg15 mi
1:00 am28 °FPassing clouds.9 mph74%30.09 "Hg15 mi
12:00 am30 °FClear.10 mph64%30.09 "Hg15 mi
Weather by CustomWeather, © 2017

See weather overviewHow to use our weather pages